Location: Augustenthal
(51.7167°N, 10.2833°E)
Time: 10:42:56
(UTC+00:00)

ALOS 2 - Pass Details

Date: 23 September 2021
Orbit: 630 x 632 km, 97.9° (Epoch: 26 October)

Event Time Altitude Azimuth Distance (km) Brightness Sun altitude
Exits shadow 21:01:45 11° 26° (NNE) 1,968 5.4 -32.0°
Drops below altitude 10° 21:02:02 10° 23° (NNE) 2,027 5.5 -32.0°
Sets 21:05:09 0° 359° (N) 2,940 6.7 -32.3°
